Weather in Nordhausen

Germany     51˚29′50″N   10˚47′08″E
temp.,
°C
wind,
m/s
gust,
m/s
humid.,
%
clouds,
%
prec.,
mm/h
press.,
hPa
HPBL,
m
28 november, sat
sat2801:00+1˚ene12850 0.0 102222
04:00e11895 0.0 102222
07:00ene12932 0.0 102322
10:00+2˚e23919 0.0 1023193
13:00+4˚e358026 0.0 1023433
16:00+1˚ene239041 0.0 102356
19:00−1˚ene239521 0.0 102575
22:00+1˚e469048 0.0 1026524
29 november, sun
sun2901:00+1˚e468074 0.0 1026632
04:00−2˚ne229139 0.0 102628
07:00−2˚ne129220 0.0 102634
10:00+1˚ne25790 0.0 1027277
13:00+4˚ene34701 0.0 1026737
16:00+1˚ne128410 0.0 102622
19:00−1˚nne12925 0.0 102723
22:00−1˚nnw11910 0.0 102721
30 november, mon
mon3001:00−2˚nw11900 0.0 102821
04:00−2˚wnw11910 0.0 102721
07:00−2˚w11930 0.0 102821
10:00wsw11830 0.0 1028126
13:00+2˚wsw23690 0.0 1027487
16:00sw22830 0.0 102625
19:00−2˚sw12881 0.0 102527
22:00−2˚sw258570 0.0 1023148
1 december, tue
tue101:00−1˚sw398185 0.0 1021380
04:00ssw2795100 1.5 1018339
07:00ssw2798100 2.6 1016280
10:00+2˚sw1397100 0.8 1016114
13:00+3˚w2497100 0.9 1016223
16:00+1˚w229574 0.0 101723
19:00w129445 0.0 101922
22:00+2˚w1294100 0.0 102024
2 december, wed
wed201:00+1˚w119598 0.1 102123
04:00+2˚w119494 0.0 102122
07:00+2˚wsw119297 0.0 102123
10:00+2˚s119191 0.0 102273
13:00+4˚ssw238382 0.0 1021261
16:00+1˚sw129168 0.0 102022
19:00sw119337 0.0 102021
22:00+1˚s129363 0.0 102032